This is the latest recevied weather packets stored in our database for station/object KT2UU-13. If no packets are shown the sender has not sent any weather packets the latest 1 day(s).
| Time | Temp. | Humidity | Pressure | Rain* | Wind** | Luminosity | Snow |
|---|---|---|---|---|---|---|---|
| 1778087566 | 22.22° C | 87% | 1015.2 hPa | 0 mm | - | - | - |
| 1778086960 | 21.67° C | 89% | 1014.9 hPa | 0 mm | - | - | - |
| 1778084232 | 20.56° C | 93% | 1015.5 hPa | 0 mm | - | - | - |
| 1778081586 | 19.44° C | 97% | 1015.1 hPa | 0 mm | - | - | - |
| 1778081283 | 18.89° C | 97% | 1014.9 hPa | 0 mm | - | - | - |
| 1778080980 | 18.89° C | 97% | 1015.6 hPa | 0 mm | - | - | - |
| 1778079466 | 18.89° C | 96% | 1017.1 hPa | 0 mm | - | - | - |
| 1778078860 | 18.89° C | 95% | 1016.3 hPa | 1.78 mm | - | - | - |
| 1778077348 | 19.44° C | 91% | 1015 hPa | 0 mm | - | - | - |
| 1778076138 | 19.44° C | 87% | 1016 hPa | 0 mm | - | - | - |
| 1778075531 | 19.44° C | 86% | 1015.8 hPa | 0 mm | - | - | - |
| 1778075228 | 19.44° C | 86% | 1015.6 hPa | 0 mm | - | - | - |
| 1778074924 | 20° C | 85% | 1015.6 hPa | 0 mm | - | - | - |
| 1778072500 | 19.44° C | 84% | 1015.4 hPa | 0 mm | - | - | - |
| 1778072198 | 19.44° C | 84% | 1015.2 hPa | 0 mm | - | - | - |
| 1778071895 | 19.44° C | 84% | 1015.1 hPa | 0 mm | - | - | - |
| 1778071291 | 19.44° C | 84% | 1014.8 hPa | 0 mm | - | - | - |
| 1778070687 | 19.44° C | 84% | 1014.6 hPa | 0 mm | - | - | - |
| 1778070383 | 19.44° C | 84% | 1014.7 hPa | 0 mm | - | - | - |
| 1778070081 | 19.44° C | 83% | 1014.6 hPa | 0 mm | - | - | - |
| 1778069173 | 19.44° C | 83% | 1014.7 hPa | 0 mm | - | - | - |
| 1778068870 | 19.44° C | 83% | 1014.7 hPa | 0 mm | - | - | - |
| 1778068266 | 19.44° C | 82% | 1014.5 hPa | 0 mm | - | - | - |
| 1778067963 | 19.44° C | 82% | 1014.6 hPa | 0 mm | - | - | - |
| 1778067661 | 19.44° C | 82% | 1014.5 hPa | 0 mm | - | - | - |
* Rain latest hour (hover to see other rain measurements)
** Current wind speed in m/s (hover to see current wind gust speed)